DW6513 Weather Reports


time (UTC)temp
C
wind
direction
speed
KPH
gust
KPH
rain 1hr
cm
rain 24hr
cm
rain mn
cm
humidity
%
barometer
mb
20260906140803 22 148 1.6 8.0 0.00 0.00 0.00 84 1016.2
20260906140303 22 215 1.6 8.0 0.00 0.00 0.00 84 1016.2
20260906135803 22 289 1.6 4.8 0.00 0.00 0.00 84 1016.2
20260906135305 22 130 1.6 4.8 0.00 0.00 0.00 85 1016.2
20260906134804 22 350 1.6 4.8 0.00 0.00 0.00 86 1016.3
20260906134303 22 177 1.6 8.0 0.00 0.00 0.00 86 1016.3
20260906133803 21 300 1.6 8.0 0.00 0.00 0.00 86 1016.3
20260906133304 21 258 0.0 4.8 0.00 0.00 0.00 87 1016.3
20260906132804 21 156 1.6 4.8 0.00 0.00 0.00 87 1016.4
20260906131803 21 110 1.6 3.2 0.00 0.00 0.00 87 1016.4
20260906131303 21 134 1.6 3.2 0.00 0.00 0.00 87 1016.4
20260906130804 21 282 0.0 3.2 0.00 0.00 0.00 87 1016.1
20260906130303 21 328 0.0 0.0 0.00 0.00 0.00 87 1015.9
20260906125804 21 258 0.0 3.2 0.00 0.00 0.00 87 1015.9
20260906125306 21 325 1.6 4.8 0.00 0.00 0.00 87 1015.9
20260906124804 21 258 1.6 4.8 0.00 0.00 0.00 88 1015.9
20260906124303 21 304 1.6 4.8 0.00 0.00 0.00 88 1015.9
20260906123803 21 133 0.0 3.2 0.00 0.00 0.00 88 1015.9
20260906123303 21 258 1.6 0.0 0.00 0.00 0.00 88 1015.9
20260906121804 21 348 0.0 4.8 0.00 0.00 0.00 88 1015.8
20260906121303 21 122 0.0 0.0 0.00 0.00 0.00 88 1015.8
20260906120803 21 114 0.0 0.0 0.00 0.00 0.00 88 1015.7
20260906120304 21 328 0.0 0.0 0.00 0.00 0.00 87 1015.6
20260906115804 21 297 0.0 3.2 0.00 0.00 0.00 88 1015.6
20260906115306 21 325 0.0 0.0 0.00 0.00 0.00 87 1015.6
20260906114803 21 258 0.0 3.2 0.00 0.00 0.00 87 1015.6
20260906114303 21 212 0.0 3.2 0.00 0.00 0.00 87 1015.6
20260906113803 21 272 0.0 0.0 0.00 0.00 0.00 86 1015.6
20260906113303 21 235 0.0 3.2 0.00 0.00 0.00 86 1015.6
20260906112804 21 100 0.0 3.2 0.00 0.00 0.00 85 1015.3
20260906111304 21 325 0.0 0.0 0.00 0.00 0.00 85 1015.1
20260906110803 21 154 0.0 0.0 0.00 0.00 0.00 85 1015.1
20260906105803 21 245 1.6 0.0 0.00 0.00 0.00 84 1015.1
20260906105306 21 168 1.6 3.2 0.00 0.00 0.00 84 1015.1
20260906104803 22 226 1.6 4.8 0.00 0.00 0.00 84 1015.0
20260906104303 22 10 1.6 4.8 0.00 0.00 0.00 84 1015.0
20260906103803 22 342 0.0 4.8 0.00 0.00 0.00 84 1015.0
20260906103304 22 10 0.0 0.0 0.00 0.00 0.00 83 1015.0
20260906102803 22 258 0.0 3.2 0.00 0.00 0.00 83 1014.8
20260906101803 22 325 0.0 0.0 0.00 0.00 0.00 84 1014.6
20260906100803 22 128 0.0 0.0 0.00 0.00 0.00 83 1014.5
20260906100303 22 145 1.6 0.0 0.00 0.00 0.00 83 1014.5
20260906095803 22 242 1.6 3.2 0.00 0.00 0.00 84 1014.5
20260906095305 22 258 1.6 3.2 0.00 0.00 0.00 84 1014.5
20260906094803 22 296 1.6 8.0 0.00 0.00 0.00 82 1014.5
20260906094303 22 302 0.0 0.0 0.00 0.00 0.00 82 1014.5
20260906093803 23 295 0.0 0.0 0.00 0.00 0.00 81 1014.5
20260906093303 23 145 1.6 0.0 0.00 0.00 0.00 81 1014.5
20260906092804 23 88 0.0 3.2 0.00 0.00 0.00 81 1014.5
20260906092306 23 325 0.0 3.2 0.00 0.00 0.00 81 1014.5
20260906091803 23 7 0.0 3.2 0.00 0.00 0.00 81 1014.5
20260906091303 23 78 1.6 0.0 0.00 0.00 0.00 81 1014.5
20260906090803 23 229 1.6 3.2 0.00 0.00 0.00 81 1014.5
20260906090303 23 280 1.6 8.0 0.00 0.00 0.00 81 1014.5
20260906085306 23 258 1.6 8.0 0.00 0.00 0.00 80 1014.5
20260906084804 23 97 0.0 9.7 0.00 0.00 0.00 77 1014.4
20260906084303 24 280 0.0 9.7 0.00 0.00 0.00 77 1014.4
20260906083803 23 173 0.0 0.0 0.00 0.00 0.00 76 1014.4
20260906083303 24 235 1.6 8.0 0.00 0.00 0.00 76 1014.4
20260906082803 24 145 1.6 8.0 0.00 0.00 0.00 77 1014.4
20260906081804 24 195 1.6 9.7 0.00 0.00 0.00 78 1014.4
20260906081303 24 302 0.0 9.7 0.00 0.00 0.00 79 1014.4
20260906080803 25 119 0.0 0.0 0.00 0.00 0.00 78 1014.4
20260906080304 25 168 0.0 4.8 0.00 0.00 0.00 78 1014.4
20260906075803 25 155 0.0 4.8 0.00 0.00 0.00 77 1014.4
20260906075306 25 302 0.0 3.2 0.00 0.00 0.00 75 1014.4
20260906074304 25 100 0.0 3.2 0.00 0.00 0.00 75 1014.2
20260906073804 25 210 0.0 4.8 0.00 0.00 0.00 75 1014.2
20260906073303 25 145 0.0 4.8 0.00 0.00 0.00 75 1014.2
20260906072306 25 325 0.0 0.0 0.00 0.00 0.00 75 1014.1
20260906071803 26 354 0.0 0.0 0.00 0.00 0.00 76 1014.1
20260906071304 25 168 1.6 0.0 0.00 0.00 0.00 76 1014.1
20260906070303 25 325 1.6 8.0 0.00 0.00 0.00 77 1014.2
20260906065803 25 163 1.6 8.0 0.00 0.00 0.00 76 1014.2
20260906065305 26 190 1.6 0.0 0.00 0.00 0.00 77 1014.2
20260906064803 26 240 1.6 0.0 0.00 0.00 0.00 76 1014.3
20260906064303 26 280 1.6 4.8 0.00 0.00 0.00 77 1014.3
20260906063303 26 302 0.0 0.0 0.00 0.00 0.00 75 1014.3
20260906062804 26 21 0.0 0.0 0.00 0.00 0.00 74 1014.4
20260906062306 26 145 0.0 0.0 0.00 0.00 0.00 74 1014.4
20260906061804 26 118 0.0 8.0 0.00 0.00 0.00 74 1014.4
20260906061303 26 100 0.0 8.0 0.00 0.00 0.00 72 1014.4
20260906060803 26 71 0.0 3.2 0.00 0.00 0.00 72 1014.4
20260906060304 27 145 0.0 3.2 0.00 0.00 0.00 73 1014.4
20260906055803 27 49 0.0 4.8 0.00 0.00 0.00 73 1014.4
20260906055306 26 325 0.0 3.2 0.00 0.00 0.00 71 1014.4
20260906054803 27 83 0.0 4.8 0.00 0.00 0.00 70 1014.5
20260906054303 27 302 1.6 4.8 0.00 0.00 0.00 70 1014.5
20260906053804 27 164 1.6 9.7 0.00 0.00 0.00 70 1014.5
20260906053303 27 122 1.6 3.2 0.00 0.00 0.00 69 1014.5
20260906052803 27 104 1.6 3.2 0.00 0.00 0.00 70 1014.4
20260906052305 27 55 0.0 0.0 0.00 0.00 0.00 69 1014.3
20260906050820 27 100 1.6 3.2 0.00 0.00 0.00 69 1014.2
20260906050304 27 122 0.0 0.0 0.00 0.00 0.00 68 1014.0
20260906045804 27 280 0.0 8.0 0.00 0.00 0.00 67 1014.0
20260906045306 27 302 0.0 3.2 0.00 0.00 0.00 67 1014.0
20260906044803 27 48 0.0 3.2 0.00 0.00 0.00 66 1014.0
20260906044303 27 212 0.0 0.0 0.00 0.00 0.00 66 1014.0
20260906043303 27 122 0.0 3.2 0.00 0.00 0.00 65 1014.0
20260906042804 27 95 0.0 0.0 0.00 0.00 0.00 64 1013.9
20260906042306 28 302 0.0 0.0 0.00 0.00 0.00 64 1013.9
20260906041804 28 269 1.6 0.0 0.00 0.00 0.00 64 1013.9
20260906041304 28 10 1.6 8.0 0.00 0.00 0.00 64 1013.9
20260906040804 28 191 0.0 0.0 0.00 0.00 0.00 63 1013.7
20260906034803 28 232 0.0 0.0 0.00 0.00 0.00 60 1013.5
20260906033803 28 302 1.6 9.7 0.00 0.00 0.00 60 1013.5
20260906033304 28 258 1.6 9.7 0.00 0.00 0.00 60 1013.5
20260906032804 28 279 3.2 4.8 0.00 0.00 0.00 59 1013.3
20260906031804 28 314 1.6 9.7 0.00 0.00 0.00 58 1013.2
20260906031304 29 32 1.6 9.7 0.00 0.00 0.00 57 1013.2
20260906030803 29 235 1.6 8.0 0.00 0.00 0.00 57 1013.1
20260906025803 29 255 1.6 8.0 0.00 0.00 0.00 56 1013.1
20260906025306 29 212 1.6 4.8 0.00 0.00 0.00 55 1013.1
20260906024803 29 232 1.6 4.8 0.00 0.00 0.00 55 1012.9
20260906023803 29 308 0.0 3.2 0.00 0.00 0.00 52 1012.7
20260906023304 29 258 0.0 4.8 0.00 0.00 0.00 50 1012.7
20260906022306 29 190 0.0 0.0 0.00 0.00 0.00 49 1012.5
20260906021803 29 275 0.0 0.0 0.00 0.00 0.00 49 1012.5
20260906021303 29 235 0.0 0.0 0.00 0.00 0.00 49 1012.5
20260906020804 29 244 0.0 3.2 0.00 0.00 0.00 49 1012.4
20260906020303 30 235 0.0 3.2 0.00 0.00 0.00 49 1012.4
20260906015803 29 285 0.0 3.2 0.00 0.00 0.00 49 1012.4
20260906015306 29 212 0.0 0.0 0.00 0.00 0.00 48 1012.4
20260906014304 30 258 0.0 0.0 0.00 0.00 0.00 48 1012.0
20260906013804 30 275 0.0 0.0 0.00 0.00 0.00 47 1012.0
20260906013303 30 302 0.0 0.0 0.00 0.00 0.00 46 1012.0
20260906012803 30 105 0.0 0.0 0.00 0.00 0.00 46 1012.1
20260906012306 30 258 0.0 0.0 0.00 0.00 0.00 46 1012.1
20260906011804 30 201 0.0 0.0 0.00 0.00 0.00 46 1012.1
20260906011303 30 280 1.6 4.8 0.00 0.00 0.00 46 1012.1
20260906010804 30 164 1.6 8.0 0.00 0.00 0.00 46 1012.1
20260906005803 31 292 0.0 0.0 0.00 0.00 0.00 45 1012.1
20260906004804 31 139 0.0 0.0 0.00 0.00 0.00 44 1012.0
20260906004304 31 325 0.0 3.2 0.00 0.00 0.00 44 1011.9
20260906003804 31 264 1.6 3.2 0.00 0.00 0.00 44 1011.9
20260906003303 31 168 0.0 0.0 0.00 0.00 0.00 43 1011.9
20260906002803 32 275 0.0 8.0 0.00 0.00 0.00 42 1011.8
20260906002306 32 145 0.0 3.2 0.00 0.00 0.00 42 1011.8
20260906001803 32 103 0.0 0.0 0.00 0.00 0.00 42 1011.8
20260906000803 32 108 0.0 0.0 0.00 0.00 0.00 42 1011.9
20260906000304 32 258 0.0 0.0 0.00 0.00 0.00 42 1011.9
20260905235803 33 241 1.6 3.2 0.00 0.00 0.00 41 1011.9
20260905235306 33 258 1.6 3.2 0.00 0.00 0.00 41 1011.9
20260905234803 33 266 1.6 9.7 0.00 0.00 0.00 41 1012.0
20260905234304 33 258 1.6 9.7 0.00 0.00 0.00 40 1012.0
20260905233804 33 316 1.6 4.8 0.00 0.00 0.00 39 1012.0
20260905233303 33 168 1.6 9.7 0.00 0.00 0.00 39 1012.0
20260905232804 33 193 3.2 8.0 0.00 0.00 0.00 39 1012.0
20260905232306 33 190 4.8 8.0 0.00 0.00 0.00 38 1012.0
20260905231804 33 276 4.8 14.5 0.00 0.00 0.00 36 1012.0
20260905231304 34 325 4.8 9.7 0.00 0.00 0.00 34 1012.0
20260905230803 34 288 3.2 11.3 0.00 0.00 0.00 34 1011.9
20260905230303 35 302 3.2 11.3 0.00 0.00 0.00 33 1011.9
20260905225305 36 302 8.0 16.1 0.00 0.00 0.00 31 1011.9
20260905224804 36 270 4.8 22.5 0.00 0.00 0.00 29 1011.8
20260905224303 38 302 3.2 16.1 0.00 0.00 0.00 28 1011.8
20260905223804 38 307 3.2 16.1 0.00 0.00 0.00 29 1011.8
20260905223304 37 348 8.0 12.9 0.00 0.00 0.00 31 1011.8
20260905222804 36 36 8.0 14.5 0.00 0.00 0.00 32 1011.9
20260905222306 36 280 4.8 9.7 0.00 0.00 0.00 32 1012.0
20260905221804 37 301 3.2 9.7 0.00 0.00 0.00 32 1012.0
20260905221304 36 302 3.2 3.2 0.00 0.00 0.00 33 1012.0
20260905220803 37 302 3.2 4.8 0.00 0.00 0.00 33 1011.9
20260905215804 37 72 6.4 22.5 0.00 0.00 0.00 32 1011.8
20260905215306 37 78 8.0 9.7 0.00 0.00 0.00 32 1011.8
20260905213804 38 302 8.0 14.5 0.00 0.00 0.00 32 1011.8
20260905213303 38 78 8.0 22.5 0.00 0.00 0.00 33 1011.8
20260905212804 37 267 9.7 16.1 0.00 0.00 0.00 34 1012.3
20260905212306 36 280 9.7 24.1 0.00 0.00 0.00 36 1012.7
20260905211304 35 212 9.7 19.3 0.00 0.00 0.00 34 1012.7
20260905210803 36 65 8.0 33.8 0.00 0.00 0.00 31 1012.3
20260905205804 38 179 1.6 9.7 0.00 0.00 0.00 26 1012.0
20260905205306 38 122 3.2 4.8 0.00 0.00 0.00 26 1012.0
20260905203804 38 316 8.0 12.9 0.00 0.00 0.00 24 1012.3
20260905203304 40 302 4.8 12.9 0.00 0.00 0.00 23 1012.3
20260905202803 40 329 3.2 8.0 0.00 0.00 0.00 23 1012.3
20260905202306 41 212 3.2 3.2 0.00 0.00 0.00 22 1012.3
20260905201804 40 325 4.8 14.5 0.00 0.00 0.00 24 1012.3
20260905201304 40 302 4.8 14.5 0.00 0.00 0.00 24 1012.3
20260905200803 39 294 4.8 11.3 0.00 0.00 0.00 24 1012.1
20260905200304 38 145 6.4 8.0 0.00 0.00 0.00 26 1012.0
20260905195804 40 18 4.8 14.5 0.00 0.00 0.00 24 1012.0
20260905195306 40 280 8.0 9.7 0.00 0.00 0.00 28 1012.0
20260905194304 39 258 3.2 9.7 0.00 0.00 0.00 29 1013.0
20260905193304 38 325 8.0 19.3 0.00 0.00 0.00 29 1013.0
20260905192306 37 348 9.7 14.5 0.00 0.00 0.00 31 1013.0
20260905191804 37 55 9.7 22.5 0.00 0.00 0.00 30 1013.0
20260905191304 38 32 8.0 29.0 0.00 0.00 0.00 29 1013.0
20260905190804 38 342 8.0 9.7 0.00 0.00 0.00 28 1013.2
20260905190304 38 100 6.4 12.9 0.00 0.00 0.00 29 1013.3
20260905185804 38 275 4.8 12.9 0.00 0.00 0.00 30 1013.3
20260905184304 38 302 6.4 19.3 0.00 0.00 0.00 33 1013.5
20260905183803 38 342 3.2 14.5 0.00 0.00 0.00 35 1013.5
20260905183304 38 280 8.0 11.3 0.00 0.00 0.00 36 1013.5
20260905182804 37 293 9.7 14.5 0.00 0.00 0.00 38 1013.8
20260905182305 36 168 9.7 14.5 0.00 0.00 0.00 38 1014.2
20260905181804 36 302 9.7 24.1 0.00 0.00 0.00 38 1014.2
20260905181304 35 100 8.0 14.5 0.00 0.00 0.00 41 1014.2
20260905180804 35 256 8.0 14.5 0.00 0.00 0.00 41 1013.8
20260905180304 34 280 6.4 16.1 0.00 0.00 0.00 44 1013.6
20260905175804 34 302 8.0 16.1 0.00 0.00 0.00 44 1013.6
20260905175306 33 145 4.8 16.1 0.00 0.00 0.00 44 1013.6
20260905174804 34 64 3.2 16.1 0.00 0.00 0.00 46 1013.8
20260905173804 33 302 8.0 12.9 0.00 0.00 0.00 46 1014.0
20260905173304 33 325 8.0 9.7 0.00 0.00 0.00 47 1014.0
20260905172305 33 55 3.2 8.0 0.00 0.00 0.00 48 1014.4
20260905171804 32 36 1.6 11.3 0.00 0.00 0.00 49 1014.4
20260905171304 32 78 3.2 11.3 0.00 0.00 0.00 49 1014.4
20260905170804 32 109 3.2 4.8 0.00 0.00 0.00 49 1014.6
20260905170304 32 32 3.2 9.7 0.00 0.00 0.00 49 1014.7
20260905165804 32 149 3.2 9.7 0.00 0.00 0.00 50 1014.7
20260905165306 31 302 3.2 12.9 0.00 0.00 0.00 50 1014.7
20260905164301 31 258 3.2 16.1 0.00 0.00 0.00 51 1015.0
20260905163800 31 302 3.2 9.7 0.00 0.00 0.00 52 1015.0
20260905163300 31 122 4.8 8.0 0.00 0.00 0.00 52 1015.0
20260905162800 31 302 8.0 14.5 0.00 0.00 0.00 52 1015.0
20260905160802 31 289 4.8 19.3 0.00 0.00 0.00 53 1014.9
20260905160301 30 348 3.2 3.2 0.00 0.00 0.00 54 1014.9
20260905155301 30 100 3.2 4.8 0.00 0.00 0.00 55 1014.9
20260905154801 30 286 6.4 12.9 0.00 0.00 0.00 56 1014.8
20260905154301 30 302 8.0 12.9 0.00 0.00 0.00 56 1014.8
20260905153800 30 18 4.8 12.9 0.00 0.00 0.00 57 1014.8
20260905153300 30 259 3.2 9.7 0.00 0.00 0.00 58 1013.8
20260905151301 29 122 3.2 9.7 0.00 0.00 0.00 60 1013.8
20260905150800 28 324 3.2 9.7 0.00 0.00 0.00 60 1013.8
20260905150301 28 258 3.2 9.7 0.00 0.00 0.00 60 1013.8
20260905145802 28 249 3.2 9.7 0.00 0.00 0.00 61 1013.8
20260905145301 28 302 3.2 11.3 0.00 0.00 0.00 62 1013.8
20260905144800 28 302 3.2 9.7 0.00 0.00 0.00 63 1013.8
20260905144301 27 78 1.6 12.9 0.00 0.00 0.00 64 1013.8
20260905143801 27 229 0.0 4.8 0.00 0.00 0.00 65 1013.8
20260905143301 27 147 1.6 4.8 0.00 0.00 0.00 66 1013.8
20260905142800 27 310 1.6 11.3 0.00 0.00 0.00 66 1013.8
20260905142305 26 145 1.6 4.8 0.00 0.00 0.00 66 1013.8
20260905141802 26 329 3.2 8.0 0.00 0.00 0.00 67 1013.8